When you browse on this site, cookies collect data to enhance your experience and personalize the content and advertising you see.
Visit our Privacy Policy to learn more. By continuing to use the site, you agree to this use of cookies and data.
  • en France
  • Liste des pays
  • À 7 jours
  • Température de l'eau
  • Carte météo
  • Widgets météo
  • user-avatar
    Se connecter

    Météo par heure à Masvingo

    Ce jour, 10 Décembre, Mardi

    Heure Température Précipitation Vent Pression Humidité
    00:00 +21°C° 0.2 mm 3 m/s 669 mmHg 94%
    01:00 +21°C° 0.2 mm 3 m/s 669 mmHg 94%
    02:00 +20°C° 0 mm 3 m/s 669 mmHg 93%
    03:00 +20°C° 0 mm 3 m/s 669 mmHg 93%
    04:00 +20°C° 0 mm 3 m/s 669 mmHg 94%
    05:00 +20°C° 0 mm 3 m/s 668 mmHg 94%
    06:00 +20°C° 0.3 mm 3 m/s 669 mmHg 93%
    07:00 +20°C° 0.3 mm 3 m/s 669 mmHg 93%
    08:00 +20°C° 0.3 mm 3 m/s 670 mmHg 92%
    09:00 +21°C° 0.3 mm 3 m/s 670 mmHg 88%
    10:00 +22°C° 0.3 mm 3 m/s 670 mmHg 85%
    11:00 +24°C° 0.3 mm 3 m/s 669 mmHg 82%
    12:00 +24°C° 1.5 mm 2 m/s 669 mmHg 83%
    13:00 +24°C° 1.5 mm 2 m/s 669 mmHg 84%
    14:00 +24°C° 1.5 mm 2 m/s 668 mmHg 86%
    15:00 +23°C° 1.2 mm 2 m/s 668 mmHg 88%
    16:00 +22°C° 1.2 mm 3 m/s 668 mmHg 90%
    17:00 +21°C° 1.2 mm 3 m/s 668 mmHg 93%
    18:00 +21°C° 0.9 mm 3 m/s 668 mmHg 93%
    19:00 +21°C° 0.9 mm 3 m/s 669 mmHg 94%
    20:00 +20°C° 0.9 mm 3 m/s 669 mmHg 95%
    21:00 +20°C° 8.4 mm 3 m/s 669 mmHg 96%
    22:00 +20°C° 8.4 mm 3 m/s 669 mmHg 97%
    23:00 +19°C° 8.4 mm 2 m/s 669 mmHg 97%

    Demain, 11 Décembre, Mercredi

    Heure Température Précipitation Vent Pression Humidité
    00:00 +19°C° 8.2 mm 3 m/s 669 mmHg 97%
    01:00 +19°C° 8.2 mm 3 m/s 668 mmHg 98%
    02:00 +19°C° 8.2 mm 3 m/s 668 mmHg 98%
    03:00 +19°C° 7.5 mm 3 m/s 668 mmHg 98%
    04:00 +19°C° 7.5 mm 3 m/s 668 mmHg 98%
    05:00 +19°C° 7.5 mm 3 m/s 668 mmHg 98%
    06:00 +19°C° 4.1 mm 3 m/s 668 mmHg 97%
    07:00 +19°C° 4.1 mm 3 m/s 668 mmHg 97%
    08:00 +19°C° 4.1 mm 2 m/s 669 mmHg 97%
    09:00 +19°C° 1.7 mm 2 m/s 669 mmHg 97%
    10:00 +19°C° 1.7 mm 2 m/s 669 mmHg 96%
    11:00 +21°C° 1.7 mm 1 m/s 669 mmHg 96%
    12:00 +20°C° 0.6 mm 2 m/s 669 mmHg 93%
    13:00 +21°C° 0.6 mm 2 m/s 668 mmHg 90%
    14:00 +23°C° 0.6 mm 2 m/s 668 mmHg 88%
    15:00 +23°C° 0.2 mm 2 m/s 668 mmHg 88%
    16:00 +23°C° 0.2 mm 2 m/s 668 mmHg 88%
    17:00 +22°C° 0.2 mm 3 m/s 668 mmHg 88%
    18:00 +21°C° 0 mm 2 m/s 668 mmHg 91%
    19:00 +20°C° 0 mm 2 m/s 668 mmHg 93%
    20:00 +20°C° 0 mm 1 m/s 669 mmHg 96%
    21:00 +20°C° 0 mm 1 m/s 669 mmHg 97%
    22:00 +20°C° 0 mm 1 m/s 669 mmHg 97%
    23:00 +20°C° 0 mm 1 m/s 669 mmHg 98%

    Après-demain, 12 Décembre, Jeudi

    Heure Température Précipitation Vent Pression Humidité
    00:00 +19°C° 0 mm 1 m/s 669 mmHg 98%
    01:00 +17°C° 0 mm 0 m/s 669 mmHg 98%
    02:00 +17°C° 0 mm 0 m/s 669 mmHg 97%
    03:00 +19°C° 0 mm 1 m/s 669 mmHg 97%
    04:00 +20°C° 0 mm 1 m/s 669 mmHg 96%
    05:00 +20°C° 0 mm 1 m/s 669 mmHg 95%
    06:00 +20°C° 0 mm 1 m/s 669 mmHg 93%
    07:00 +21°C° 0 mm 1 m/s 670 mmHg 91%
    08:00 +21°C° 0 mm 1 m/s 670 mmHg 89%
    09:00 +23°C° 0.1 mm 2 m/s 670 mmHg 83%
    10:00 +24°C° 0.1 mm 2 m/s 670 mmHg 78%
    11:00 +25°C° 0.1 mm 2 m/s 670 mmHg 72%
    12:00 +26°C° 0.3 mm 2 m/s 670 mmHg 71%
    13:00 +27°C° 0.3 mm 2 m/s 669 mmHg 69%
    14:00 +27°C° 0.3 mm 3 m/s 669 mmHg 67%
    15:00 +26°C° 0.6 mm 3 m/s 669 mmHg 70%
    16:00 +26°C° 0.6 mm 3 m/s 668 mmHg 74%
    17:00 +25°C° 0.6 mm 3 m/s 668 mmHg 78%
    18:00 +24°C° 0.3 mm 3 m/s 669 mmHg 83%
    19:00 +22°C° 0.3 mm 3 m/s 669 mmHg 88%
    20:00 +21°C° 0.3 mm 2 m/s 669 mmHg 93%
    21:00 +21°C° 0 mm 2 m/s 670 mmHg 94%
    22:00 +20°C° 0 mm 2 m/s 670 mmHg 94%
    23:00 +20°C° 0 mm 2 m/s 670 mmHg 95%

    13 Décembre, Vendredi

    Heure Température Précipitation Vent Pression Humidité
    00:00 +20°C° 0 mm 2 m/s 670 mmHg 95%
    01:00 +19°C° 0 mm 2 m/s 670 mmHg 95%
    02:00 +19°C° 0 mm 2 m/s 670 mmHg 96%
    03:00 +19°C° 0 mm 2 m/s 670 mmHg 95%
    04:00 +20°C° 0 mm 2 m/s 670 mmHg 95%
    05:00 +20°C° 0 mm 2 m/s 671 mmHg 94%
    06:00 +20°C° 0.1 mm 3 m/s 671 mmHg 92%
    07:00 +21°C° 0.1 mm 3 m/s 671 mmHg 90%
    08:00 +21°C° 0.1 mm 3 m/s 672 mmHg 88%
    09:00 +22°C° 0.2 mm 3 m/s 672 mmHg 86%
    10:00 +22°C° 0.2 mm 3 m/s 671 mmHg 84%
    11:00 +24°C° 0.2 mm 3 m/s 671 mmHg 82%
    12:00 +25°C° 0 mm 3 m/s 671 mmHg 77%
    13:00 +26°C° 0 mm 3 m/s 671 mmHg 72%
    14:00 +28°C° 0 mm 4 m/s 670 mmHg 66%
    15:00 +27°C° 0 mm 4 m/s 670 mmHg 69%
    16:00 +27°C° 0 mm 4 m/s 670 mmHg 71%
    17:00 +26°C° 0 mm 4 m/s 669 mmHg 74%
    18:00 +25°C° 0 mm 3 m/s 670 mmHg 80%
    19:00 +24°C° 0 mm 3 m/s 670 mmHg 85%
    20:00 +22°C° 0 mm 3 m/s 670 mmHg 91%
    21:00 +21°C° 0 mm 2 m/s 670 mmHg 92%
    22:00 +21°C° 0 mm 2 m/s 671 mmHg 92%
    23:00 +21°C° 0 mm 2 m/s 671 mmHg 93%

    14 Décembre, Samedi

    Heure Température Précipitation Vent Pression Humidité
    00:00 +20°C° 0 mm 2 m/s 670 mmHg 93%
    01:00 +20°C° 0 mm 2 m/s 670 mmHg 93%
    02:00 +20°C° 0 mm 2 m/s 670 mmHg 93%
    03:00 +20°C° 0 mm 1 m/s 670 mmHg 94%
    04:00 +20°C° 0 mm 1 m/s 670 mmHg 95%
    05:00 +20°C° 0 mm 1 m/s 670 mmHg 95%
    06:00 +22°C° 0 mm 1 m/s 671 mmHg 89%
    07:00 +23°C° 0 mm 1 m/s 671 mmHg 82%
    08:00 +25°C° 0 mm 2 m/s 672 mmHg 76%
    09:00 +26°C° 0.1 mm 2 m/s 672 mmHg 72%
    10:00 +27°C° 0.1 mm 2 m/s 672 mmHg 67%
    11:00 +28°C° 0.1 mm 2 m/s 671 mmHg 63%
    12:00 +29°C° 0 mm 2 m/s 671 mmHg 61%
    13:00 +29°C° 0 mm 2 m/s 670 mmHg 58%
    14:00 +30°C° 0 mm 2 m/s 670 mmHg 56%
    15:00 +30°C° 0.1 mm 2 m/s 670 mmHg 56%
    16:00 +30°C° 0.1 mm 2 m/s 669 mmHg 57%
    17:00 +29°C° 0.1 mm 2 m/s 669 mmHg 58%
    18:00 +28°C° 0 mm 2 m/s 669 mmHg 63%
    19:00 +26°C° 0 mm 2 m/s 670 mmHg 69%
    20:00 +25°C° 0 mm 2 m/s 670 mmHg 75%
    21:00 +24°C° 0 mm 2 m/s 670 mmHg 78%
    22:00 +24°C° 0 mm 2 m/s 670 mmHg 81%
    23:00 +23°C° 0 mm 2 m/s 670 mmHg 84%

    15 Décembre, Dimanche

    Heure Température Précipitation Vent Pression Humidité
    00:00 +23°C° 0 mm 1 m/s 670 mmHg 85%
    01:00 +23°C° 0 mm 1 m/s 669 mmHg 86%
    02:00 +22°C° 0 mm 1 m/s 669 mmHg 88%
    03:00 +22°C° 0 mm 1 m/s 669 mmHg 88%
    04:00 +22°C° 0 mm 1 m/s 669 mmHg 88%
    05:00 +22°C° 0 mm 1 m/s 669 mmHg 88%
    06:00 +23°C° 0 mm 1 m/s 670 mmHg 81%
    07:00 +25°C° 0 mm 1 m/s 671 mmHg 74%
    08:00 +27°C° 0 mm 1 m/s 671 mmHg 67%
    09:00 +29°C° 0 mm 1 m/s 671 mmHg 59%
    10:00 +31°C° 0 mm 1 m/s 672 mmHg 50%
    11:00 +33°C° 0 mm 1 m/s 672 mmHg 41%
    12:00 +33°C° 0 mm 1 m/s 671 mmHg 38%
    13:00 +34°C° 0 mm 1 m/s 671 mmHg 35%
    14:00 +34°C° 0 mm 1 m/s 670 mmHg 32%
    15:00 +34°C° 0 mm 2 m/s 670 mmHg 36%
    16:00 +32°C° 0 mm 2 m/s 669 mmHg 39%
    17:00 +31°C° 0 mm 3 m/s 669 mmHg 43%
    18:00 +30°C° 0 mm 2 m/s 669 mmHg 46%
    19:00 +28°C° 0 mm 2 m/s 669 mmHg 49%
    20:00 +27°C° 0 mm 1 m/s 669 mmHg 52%
    21:00 +26°C° 0 mm 1 m/s 669 mmHg 55%
    22:00 +26°C° 0 mm 1 m/s 669 mmHg 57%
    23:00 +25°C° 0 mm 2 m/s 669 mmHg 59%
    Voir plus